Date String (YYYY-MM-DD hh:mm:ss) UTC,Instrument flags,Ambient pressure (hPa),Sample flow (lpm),Bypass flow (lpm),Sample temperature (°C),Ambient temperature (°C),ASC tube jacket temperature (°C),LED temperature (°C),Box temperature (°C),Sample RH (%),Span deviation,Mass concentration (μg/m³),Mass concentration (μg/m³),Mass concentration (μg/m³)
DateTimeUTC,F1_M11,P_M11,Q1_M11,Q2_M11,T1_M11,T2_M11,T3_M11,T4_M11,T5_M11,U1_M11,ZSPAN_M11,X0_M11,X2_M11,X1_M11
2021-09-07 16:00:00,,0834.0,5.00,0.00,29.6,26.9,00.0,38.8,31.1,12.6,0001.8,0048.81,0030.75,0028.42
2021-09-07 16:01:00,,0834.0,5.00,0.00,29.6,27.4,00.0,38.7,31.2,12.6,0001.5,0049.22,0030.95,0028.52
2021-09-07 16:02:00,,0834.0,4.98,0.00,29.6,27.7,00.0,38.7,31.3,12.1,0001.7,0048.66,0031.19,0028.71
2021-09-07 16:03:00,,0834.0,5.01,0.00,29.6,28.0,00.0,38.7,31.3,12.1,0001.8,0048.96,0031.48,0028.99
2021-09-07 16:04:00,,0834.0,4.99,0.00,29.6,28.2,00.0,38.7,31.4,12.2,0001.7,0048.96,0031.65,0029.22
2021-09-07 16:05:00,,0834.0,5.00,0.00,29.7,28.4,00.0,38.7,31.5,12.0,0001.9,0049.15,0031.87,0029.47
2021-09-07 16:06:00,,0834.0,5.01,0.00,29.7,28.6,00.0,38.7,31.5,12.0,0002.0,0049.31,0032.00,0029.60
2021-09-07 16:07:00,,0834.0,5.01,0.00,29.7,28.7,00.0,38.7,31.6,11.8,0002.0,0049.13,0032.17,0029.82
2021-09-07 16:08:00,,0834.0,4.99,0.00,29.8,28.8,00.0,38.8,31.6,11.8,0001.7,0049.64,0032.54,0030.16
2021-09-07 16:09:00,,0834.0,5.00,0.00,29.8,28.9,00.0,38.8,31.7,11.7,0001.8,0049.38,0032.91,0030.53
2021-09-07 16:10:00,,0834.0,4.99,0.00,29.9,29.0,00.0,38.8,31.7,11.5,0001.3,0048.64,0033.29,0030.87
2021-09-07 16:11:00,,0834.0,4.99,0.00,29.9,28.6,00.0,38.8,31.6,11.6,0001.8,0048.84,0033.60,0031.14
2021-09-07 16:12:00,,0834.0,5.01,0.00,29.8,26.9,00.0,38.8,31.2,11.7,0002.3,0048.87,0033.69,0031.27
2021-09-07 16:13:00,,0834.0,5.00,0.00,29.7,26.2,00.0,38.8,31.0,11.9,0002.6,0049.41,0033.79,0031.37
2021-09-07 16:14:00,,0834.0,5.00,0.00,29.6,26.6,00.0,38.8,31.1,12.0,0002.4,0050.10,0033.87,0031.40
2021-09-07 16:15:00,,0834.0,5.00,0.00,29.5,27.0,00.0,38.7,31.1,12.1,0002.0,0049.97,0034.01,0031.47
2021-09-07 16:16:00,,0834.0,5.01,0.00,29.5,27.4,00.0,38.7,31.2,12.3,0001.6,0048.52,0034.00,0031.48
2021-09-07 16:17:00,,0834.0,4.98,0.00,29.6,27.8,00.0,38.7,31.3,12.8,0001.1,0048.21,0034.00,0031.46
2021-09-07 16:18:00,,0834.0,5.00,0.00,29.6,28.0,00.0,38.7,31.3,12.6,0000.4,0049.39,0034.01,0031.40
2021-09-07 16:19:00,,0834.0,5.00,0.00,29.6,28.3,00.0,38.7,31.4,12.6,0000.4,0048.69,0033.78,0031.24
2021-09-07 16:20:00,,0834.0,5.00,0.00,29.7,28.5,00.0,38.7,31.5,12.5,0000.4,0048.36,0033.50,0031.00
2021-09-07 16:21:00,,0834.1,4.99,0.00,29.7,28.6,00.0,38.7,31.5,12.5,0000.3,0048.88,0033.37,0030.87
2021-09-07 16:22:00,,0834.1,5.01,0.00,29.8,28.7,00.0,38.7,31.6,12.7,0000.1,0049.37,0033.21,0030.72
2021-09-07 16:23:00,,0834.1,5.00,0.00,29.8,28.9,00.0,38.7,31.7,12.5,-000.1,0049.36,0033.05,0030.63
2021-09-07 16:24:00,,0834.1,4.98,0.00,29.8,29.0,00.0,38.8,31.7,12.3,-000.4,0049.04,0032.88,0030.50
2021-09-07 16:25:00,,0834.1,5.00,0.00,29.9,28.9,00.0,38.8,31.7,12.5,-000.4,0048.30,0032.69,0030.41
2021-09-07 16:26:00,,0834.1,4.99,0.00,29.8,27.5,00.0,38.8,31.4,12.4,-000.1,0049.94,0032.50,0030.27
2021-09-07 16:27:00,,0834.1,5.01,0.00,29.7,26.2,00.0,38.8,31.0,12.2,-000.1,0050.77,0032.52,0030.26
2021-09-07 16:28:00,,0834.1,5.00,0.00,29.6,26.4,00.0,38.7,31.0,12.5,0000.2,0051.21,0032.59,0030.30
2021-09-07 16:29:00,,0834.1,5.00,0.00,29.6,26.8,00.0,38.7,31.1,12.3,0000.8,0051.18,0032.54,0030.32
2021-09-07 16:30:00,,0834.1,5.00,0.00,29.6,27.3,00.0,38.7,31.2,12.0,0000.7,0051.42,0032.55,0030.36
2021-09-07 16:31:00,,0834.0,5.01,0.00,29.6,27.7,00.0,38.7,31.3,12.6,0000.7,0051.66,0032.71,0030.48
2021-09-07 16:32:00,,0834.1,5.00,0.00,29.6,28.0,00.0,38.7,31.3,12.6,0001.3,0050.96,0032.80,0030.56
2021-09-07 16:33:00,,0834.1,5.00,0.00,29.6,28.2,00.0,38.7,31.4,13.0,0001.3,0050.70,0032.87,0030.64
2021-09-07 16:34:00,,0834.1,4.99,0.00,29.7,28.4,00.0,38.7,31.5,13.0,0001.5,0051.49,0033.07,0030.73
2021-09-07 16:35:00,,0834.1,4.99,0.00,29.7,28.6,00.0,38.7,31.5,11.9,0001.9,0051.99,0033.33,0030.89
2021-09-07 16:36:00,,0834.1,5.00,0.00,29.8,28.8,00.0,38.7,31.6,11.4,0001.9,0052.39,0033.59,0031.14
2021-09-07 16:37:00,,0834.1,5.01,0.00,29.8,28.9,00.0,38.7,31.7,11.3,0001.9,0051.71,0033.90,0031.40
2021-09-07 16:38:00,,0834.2,5.00,0.00,29.8,28.7,00.0,38.8,31.7,11.3,0002.4,0051.63,0034.10,0031.58
2021-09-07 16:39:00,,0834.2,5.00,0.00,29.8,27.1,00.0,38.8,31.2,11.8,0002.6,0051.31,0034.28,0031.75
2021-09-07 16:40:00,,0834.2,4.99,0.00,29.6,26.2,00.0,38.7,30.9,12.0,0003.0,0051.33,0034.58,0031.98
2021-09-07 16:41:00,,0834.2,5.01,0.00,29.5,26.5,00.0,38.7,31.0,12.4,0003.3,0053.07,0034.85,0032.15
2021-09-07 16:42:00,,0834.1,5.00,0.00,29.5,27.0,00.0,38.7,31.1,12.3,0003.1,0054.26,0034.95,0032.26
2021-09-07 16:43:00,,0834.1,5.00,0.00,29.5,27.4,00.0,38.7,31.2,12.3,0003.2,0055.14,0035.04,0032.39
2021-09-07 16:44:00,,0834.1,5.00,0.00,29.5,27.7,00.0,38.6,31.3,12.6,0002.8,0056.07,0035.20,0032.56
2021-09-07 16:45:00,,0834.1,5.01,0.00,29.6,28.1,00.0,38.6,31.3,12.8,0002.4,0055.39,0035.31,0032.73
2021-09-07 16:46:00,,0834.1,4.99,0.00,29.6,28.3,00.0,38.7,31.4,12.9,0002.6,0055.63,0035.29,0032.80
2021-09-07 16:47:00,,0834.1,5.00,0.00,29.7,28.5,00.0,38.7,31.5,12.9,0002.6,0055.66,0035.38,0032.83
2021-09-07 16:48:00,,0834.1,5.00,0.00,29.7,28.7,00.0,38.7,31.5,12.2,0002.7,0055.58,0035.39,0032.87
2021-09-07 16:49:00,,0834.1,5.01,0.00,29.8,28.8,00.0,38.7,31.6,12.0,0002.3,0056.29,0035.41,0032.92
2021-09-07 16:50:00,,0834.0,5.00,0.00,29.8,28.3,00.0,38.7,31.5,11.4,0002.2,0056.18,0035.40,0032.96
2021-09-07 16:51:00,,0834.1,4.99,0.00,29.6,26.5,00.0,38.7,31.0,11.5,0001.5,0055.93,0035.41,0033.01
2021-09-07 16:52:00,,0834.1,5.02,0.00,29.5,26.1,00.0,38.7,30.8,11.6,0001.1,0055.15,0035.51,0033.12
2021-09-07 16:53:00,,0834.1,4.99,0.00,29.5,26.6,00.0,38.6,30.9,11.9,0001.2,0055.75,0035.67,0033.25
2021-09-07 16:54:00,,0834.1,4.99,0.00,29.4,27.0,00.0,38.6,31.0,12.1,0000.9,0055.72,0035.75,0033.28
2021-09-07 16:55:00,,0834.1,5.00,0.00,29.4,27.4,00.0,38.6,31.1,12.1,0000.9,0055.22,0035.78,0033.32
2021-09-07 16:56:00,,0834.1,5.00,0.00,29.5,27.8,00.0,38.6,31.2,11.9,0000.6,0055.49,0035.77,0033.35
2021-09-07 16:57:00,,0834.1,5.00,0.00,29.5,28.1,00.0,38.6,31.3,11.9,-000.1,0054.90,0035.80,0033.39
2021-09-07 16:58:00,,0834.1,5.00,0.00,29.6,28.3,00.0,38.6,31.4,11.6,-000.0,0054.63,0035.82,0033.43
2021-09-07 16:59:00,,0834.1,5.00,0.00,29.6,28.5,00.0,38.6,31.5,11.4,-000.1,0054.28,0035.84,0033.48
